COSMOS 2251 DEB

基本信息
目录编号:
34546
目录名称:
COSMOS 2251 DEB
国际标识:
1993-036UG
轨道中心:
EARTH
物体状态:
在轨
发射日期:
1993-06-16 UTC
轨道信息
数据来源: 国际轨道数据
星历时间: 2026-09-11T01:23:23+0800
半长轴: 7115.616km
偏心率: 0.0021124
轨道倾角: 74.028°
近地点辐角: 114.221°
升交点赤经: 101.566°
平近点角: 5.019°
近地点: 722.447km
远地点: 752.511km
周期: 99.559分钟
每日圈数: 14.463856
详细信息
发射场:
PKMTR
轨道高度:
LEO
数据来源:
AOE Integration Group
参考系:
TEME
时间系统:
UTC
历元类型:
SGP4
2D轨道图
3D轨道图
轨道高度分析图
轨道倾角分析图
轨道综合分析图
查看轨道综合分析图